Portada
METAR-TAF:

METAR-TAF

Aeroports :

Yezd, Iran

latitud: 31-54N, longitud: 054-24E, altitud: 1238 m

Observació

L'informe es va fer fa 16 minuts, a les 05:00 UTC
Vent 2 kt del Est
Temperatura 3°C
Humitat 75%
Pressió 1021 hPa
Visibilitat: 2500 m
calitja

METAR: OIYY 210500Z 09002KT 2500 HZ NSC 03/M01 Q1021

Hora: 08:46 (05:16 UTC)


TAF: manca

Observacions i pronòstics meteorològics de més de 4000 aeroports (METAR i TAF).

Les estacions disponibles són els punts grocs i vermells al mapa.

Posi el ratolí al punt desitjat per veure el nom de l'estació.

Feu clic per veure les observacions i els pronòstics meteorològics.

Per canviar el mapa: feu clic els botons verds amb una creu de color negre per apropar; al botó verd amb un guió per allunyar la imatge; o en les fletxes verdes per a mapes adjacents.


METAR-TAF: